QPF
0.05 0.04 0.04 0.03 0.06 0.01 0.00 0.00 0.00 0.00 0.00 0.00 0.00 0.00 0.00 0.00 0.00 0.00 0.00 0.00 0.00 0.00 0.00 0.00 0.00 0.00 0.00 0.00 0.00 0.00 0.00 0.00
0.00 0.00 0.00 0.01 0.00 0.00 0.00 0.00 0.00 0.00 0.00 0.00 0.00 0.00 0.00 0.00 0.00 0.00 0.00 0.00 0.00 0.00 0.00 0.00 0.00 0.00 0.00 0.00 0.00 0.00 0.00 0.00
0.00 0.00 0.00 0.01 0.00 0.00 0.00 0.00 0.00 0.00 0.00 0.00 0.00 0.00 0.00 0.00 0.00 0.00 0.00 0.00 0.00 0.00 0.00 0.00 0.00 0.00 0.00 0.00 0.00 0.00 0.00 0.00
0.00 0.00 0.00 0.00 0.00 0.00 0.00 0.00 0.00 0.00 0.00 0.00 0.00 0.00 0.00 0.00 0.00 0.00 0.00 0.00 0.00 0.00 0.00 0.00 0.00 0.00 0.00 0.00 0.00 0.00 0.00 0.00
0.00 0.00 0.00 0.00 0.00 0.00 0.00 0.00 0.00 0.00 0.00 0.00 0.00 0.00 0.00 0.00 0.00 0.00 0.00 0.00 0.00 0.00 0.00 0.00 0.00 0.00 0.00 0.00 0.00 0.00 0.00 0.00
0.00 0.00 0.00 0.00 0.00 0.00 0.00 0.00 0.00 0.00 0.00 0.00 0.00 0.00 0.00 0.00 0.00 0.00 0.00 0.00 0.00 0.00 0.00 0.00 0.00 0.00 0.00 0.00 0.00 0.00 0.00 0.00
0.00 0.00 0.00 0.00 0.00 0.00 0.00 0.00 0.00 0.00 0.00 0.00 0.00 0.00 0.00 0.00 0.00 0.00 0.00 0.00 0.00 0.00 0.00 0.00 0.00 0.00 0.00 0.00 0.00 0.00 0.00 0.00
0.00 0.00 0.00 0.00 0.00 0.00 0.00 0.00 0.00 0.00 0.00 0.00 0.00 0.00 0.00 0.00 0.00 0.00 0.00 0.00 0.00 0.00 0.00 0.00 0.00 0.00 0.00 0.00 0.00 0.00 0.00 0.00
0.00 0.00 0.00 0.00 0.00 0.00 0.00 0.00 0.00 0.00 0.00 0.00 0.00 0.00 0.00 0.00 0.00 0.00 0.00 0.00 0.00 0.00 0.00 0.00 0.00 0.00 0.00 0.00 0.00 0.00 0.00 0.00
0.00 0.00 0.00 0.00 0.00 0.00 0.00 0.00 0.00 0.00 0.00 0.00 0.00 0.00 0.00 0.00 0.00 0.00 0.00 0.00 0.00 0.00 0.00 0.00 0.00 0.00 0.00 0.00 0.00 0.00 0.00 0.00
0.00 0.00 0.00 0.00 0.00 0.00 0.01 0.04 0.00 0.00 0.00 0.00 0.00 0.00 0.00 0.00 0.00 0.00 0.00 0.00 0.00 0.00 0.00 0.00 0.00 0.00 0.00 0.00 0.00 0.00 0.00 0.00
0.00 0.00 0.00 0.00 0.00 0.00 0.01 0.00 0.00 0.00 0.00 0.00 0.00 0.00 0.00 0.00 0.00 0.00 0.00 0.00 0.00 0.00 0.00 0.00 0.00 0.00 0.00 0.00 0.00 0.00 0.00 0.00
0.00 0.00 0.00 0.00 0.00 0.00 0.00 0.00 0.00 0.00 0.00 0.00 0.00 0.00 0.00 0.00 0.00 0.00 0.00 0.00 0.00 0.00 0.00 0.00 0.00 0.00 0.00 0.00 0.00 0.00 0.00 0.00
0.00 0.00 0.00 0.00 0.00 0.00 0.00 0.00 0.00 0.00 0.00 0.00 0.00 0.00 0.00 0.00 0.00 0.00 0.00 0.00 0.00 0.00 0.00 0.00 0.00 0.00 0.00 0.00 0.00 0.00 0.00 0.00
0.00 0.00 0.01 0.00 0.00 0.00 0.00 0.00 0.00 0.00 0.00 0.00 0.00 0.00 0.00 0.00 0.00 0.00 0.00 0.00 0.00 0.00 0.00 0.00 0.00 0.00 0.00 0.00 0.00 0.00 0.00 0.00
0.00 0.00 0.00 0.00 0.00 0.00 0.00 0.03 0.00 0.00 0.00 0.00 0.00 0.00 0.00 0.00 0.00 0.00 0.00 0.00 0.00 0.00 0.00 0.00 0.00 0.00 0.00 0.00 0.00 0.00 0.00 0.00
0.00 0.01 0.02 0.01 0.00 0.00 0.02 0.03 0.01 0.00 0.00 0.00 0.00 0.00 0.00 0.00 0.00 0.00 0.00 0.00 0.00 0.00 0.00 0.00 0.00 0.00 0.00 0.00 0.00 0.00 0.00 0.00
0.02 0.02 0.03 0.02 0.01 0.01 0.01 0.03 0.01 0.00 0.00 0.00 0.00 0.00 0.00 0.00 0.00 0.00 0.00 0.00 0.00 0.00 0.00 0.00 0.00 0.00 0.00 0.00 0.00 0.00 0.00 0.00
0.01 0.03 0.07 0.01 0.01 0.01 0.01 0.01 0.02 0.01 0.00 0.00 0.00 0.00 0.00 0.00 0.00 0.00 0.00 0.00 0.00 0.00 0.00 0.00 0.00 0.00 0.00 0.00 0.00 0.00 0.00 0.00
0.01 0.06 0.08 0.02 0.01 0.01 0.01 0.01 0.00 0.00 0.00 0.00 0.00 0.00 0.00 0.00 0.00 0.00 0.00 0.00 0.00 0.00 0.00 0.00 0.00 0.00 0.00 0.00 0.00 0.00 0.00 0.00
MSLP
1017.14 1016.86 1017.10 1017.12 1017.60 1017.88 1017.97 1018.37 1018.64 1019.17 1019.55 1019.84 1020.11 1020.07 1020.17 1020.39 1020.64 1020.57 1020.50 1020.58 1020.69 1020.87 1020.87 1020.96 1021.17 1021.48 1021.32 1021.34 1021.47 1021.76 1021.95 1022.14
1018.30 1018.07 1017.85 1018.63 1018.46 1017.88 1018.12 1018.60 1019.22 1019.62 1019.80 1020.22 1020.24 1020.36 1020.59 1020.70 1020.93 1020.79 1020.90 1020.90 1020.98 1021.14 1021.38 1021.38 1021.51 1021.69 1021.86 1021.82 1021.98 1022.07 1022.23 1022.30
1018.54 1018.35 1018.41 1019.13 1018.75 1018.87 1019.20 1019.61 1019.78 1020.01 1020.19 1020.51 1020.67 1020.74 1020.75 1021.05 1021.00 1020.96 1020.93 1021.10 1021.30 1021.38 1021.52 1021.64 1021.79 1022.11 1022.38 1022.29 1022.41 1022.53 1022.44 1022.52
1018.88 1018.69 1019.37 1019.48 1019.54 1019.38 1019.66 1019.97 1020.36 1020.48 1020.58 1020.90 1021.20 1021.10 1021.31 1021.26 1021.35 1021.19 1021.18 1021.33 1021.44 1021.60 1021.88 1022.03 1022.14 1022.43 1022.66 1022.75 1023.05 1023.06 1023.04 1022.82
1019.11 1019.25 1019.24 1019.45 1019.51 1019.80 1019.98 1020.03 1020.68 1020.77 1020.71 1020.97 1021.12 1021.42 1021.57 1021.61 1021.63 1021.73 1021.95 1021.94 1022.05 1022.19 1022.48 1022.56 1022.79 1022.98 1023.38 1023.10 1023.36 1023.32 1023.40 1023.24
1019.17 1019.21 1019.26 1019.48 1019.72 1020.11 1020.57 1020.59 1020.82 1020.82 1020.70 1020.94 1021.23 1021.44 1021.73 1021.88 1022.17 1022.24 1022.50 1022.50 1022.73 1022.99 1023.13 1023.18 1023.34 1023.55 1023.62 1023.64 1023.73 1023.84 1023.73 1023.51
1018.75 1019.06 1019.13 1019.56 1019.80 1020.24 1020.34 1020.41 1020.61 1020.80 1020.86 1021.03 1021.25 1021.61 1022.12 1022.16 1022.54 1022.55 1023.04 1023.10 1023.18 1023.49 1023.43 1023.59 1023.80 1024.02 1024.09 1024.09 1024.13 1024.39 1023.93 1023.93
1018.44 1018.77 1019.03 1019.57 1019.80 1020.31 1020.32 1020.41 1020.64 1020.77 1020.94 1021.04 1021.59 1021.77 1022.32 1022.60 1022.83 1022.92 1023.30 1023.47 1023.71 1023.91 1024.29 1024.12 1024.34 1024.21 1024.47 1024.50 1024.79 1024.67 1024.55 1024.41
1018.39 1018.72 1018.98 1019.40 1019.71 1019.91 1020.40 1020.44 1020.78 1021.00 1021.26 1021.53 1021.92 1022.18 1022.41 1022.90 1023.04 1023.37 1023.52 1023.91 1024.06 1024.35 1024.40 1024.55 1024.76 1024.88 1024.85 1024.82 1025.11 1024.99 1024.94 1024.91
1018.43 1018.79 1019.20 1019.56 1019.86 1020.11 1020.27 1020.65 1020.93 1021.25 1021.49 1021.85 1021.99 1022.24 1022.50 1022.80 1023.12 1023.42 1023.87 1024.05 1024.06 1024.48 1024.59 1024.97 1025.19 1025.19 1025.50 1025.35 1025.37 1025.32 1025.37 1025.36
1018.37 1018.74 1019.20 1019.59 1019.95 1020.31 1020.56 1020.90 1021.21 1021.50 1021.62 1021.93 1022.16 1022.43 1022.60 1022.75 1023.22 1023.78 1023.83 1024.06 1024.28 1024.38 1024.91 1025.08 1025.67 1025.56 1025.45 1025.76 1025.92 1025.93 1025.80 1025.54
1018.31 1018.73 1019.23 1019.65 1020.16 1020.71 1021.35 1021.54 1021.86 1021.90 1021.94 1022.03 1022.33 1022.35 1022.65 1023.04 1023.42 1023.74 1023.98 1024.22 1024.60 1024.68 1025.04 1025.44 1025.63 1025.59 1025.65 1026.01 1026.24 1026.22 1026.13 1026.20
1018.37 1018.83 1019.32 1019.72 1020.54 1021.06 1021.57 1021.89 1022.04 1022.15 1022.28 1022.28 1022.32 1022.54 1022.81 1023.01 1023.46 1023.92 1024.08 1024.38 1024.61 1024.69 1025.21 1025.47 1025.68 1025.56 1025.77 1026.33 1026.66 1026.71 1026.74 1026.64
1018.19 1018.70 1019.28 1019.77 1020.10 1020.46 1020.90 1021.56 1022.16 1022.31 1022.41 1022.72 1022.61 1022.73 1022.99 1023.26 1023.80 1024.10 1024.11 1024.42 1024.65 1024.86 1025.00 1025.43 1025.90 1026.09 1026.37 1026.89 1027.31 1027.30 1027.12 1027.00
1017.59 1018.05 1018.56 1019.18 1019.63 1020.25 1021.07 1021.82 1022.51 1022.90 1023.02 1023.07 1023.16 1023.12 1023.31 1023.68 1023.94 1024.13 1024.49 1024.68 1025.11 1025.32 1025.44 1025.55 1026.26 1026.58 1026.63 1027.02 1027.84 1028.05 1027.84 1027.38
1016.70 1017.19 1018.00 1018.68 1019.21 1019.93 1020.54 1021.43 1022.33 1022.58 1022.93 1023.27 1023.51 1023.68 1024.01 1024.10 1024.16 1024.40 1024.54 1024.75 1025.40 1025.71 1025.67 1025.91 1026.26 1026.93 1027.11 1027.20 1027.35 1027.78 1028.31 1028.50
1016.77 1017.29 1017.89 1018.42 1018.95 1019.32 1020.28 1021.27 1021.85 1022.12 1022.87 1023.39 1023.90 1024.15 1024.11 1024.23 1024.46 1024.66 1024.80 1025.07 1025.52 1025.81 1026.22 1026.38 1026.53 1026.88 1027.04 1027.37 1027.70 1027.82 1027.94 1028.39
1016.80 1017.12 1017.54 1018.04 1018.48 1018.94 1019.54 1020.66 1021.55 1022.20 1022.96 1023.46 1023.87 1024.18 1024.41 1024.53 1024.76 1025.10 1025.24 1025.49 1025.73 1025.68 1026.09 1026.22 1026.50 1026.71 1026.96 1027.14 1027.44 1027.78 1027.95 1028.17
1016.59 1016.86 1017.20 1017.47 1018.23 1018.76 1019.20 1020.05 1020.95 1021.60 1022.12 1023.15 1023.89 1024.29 1024.64 1024.74 1024.83 1024.96 1025.23 1025.40 1025.74 1026.17 1026.02 1026.26 1026.46 1026.53 1026.91 1027.16 1027.15 1027.32 1027.44 1027.64
1016.20 1016.44 1017.04 1017.24 1017.88 1018.47 1019.09 1019.76 1020.58 1021.24 1021.85 1022.79 1023.44 1023.97 1024.44 1024.62 1024.82 1025.12 1025.30 1025.60 1025.79 1026.19 1026.27 1026.33 1026.39 1026.54 1026.64 1026.84 1026.88 1026.96 1027.03 1027.18
Thickness
5638 5643 5641 5639 5636 5637 5640 5636 5637 5635 5635 5633 5633 5638 5640 5640 5638 5640 5642 5640 5638 5635 5633 5629 5625 5620 5620 5619 5616 5611 5609 5606
5631 5633 5631 5622 5627 5636 5636 5634 5631 5630 5630 5631 5634 5635 5634 5636 5635 5635 5634 5635 5634 5630 5625 5622 5619 5616 5612 5611 5607 5605 5602 5600
5627 5632 5633 5627 5629 5629 5627 5624 5625 5624 5626 5627 5630 5631 5634 5633 5634 5632 5632 5631 5626 5623 5620 5617 5613 5608 5603 5602 5600 5598 5596 5592
5625 5625 5624 5617 5614 5621 5621 5618 5618 5621 5624 5625 5625 5628 5628 5628 5627 5628 5627 5624 5622 5618 5613 5610 5608 5604 5599 5595 5591 5589 5587 5587
5623 5621 5621 5618 5617 5618 5618 5623 5619 5622 5625 5624 5625 5623 5623 5623 5623 5622 5616 5615 5613 5610 5606 5604 5600 5596 5589 5590 5584 5582 5579 5577
5619 5619 5620 5620 5621 5621 5617 5622 5622 5623 5624 5623 5622 5623 5620 5620 5616 5614 5610 5609 5606 5602 5599 5596 5591 5586 5583 5580 5576 5573 5571 5570
5626 5624 5627 5624 5623 5620 5623 5624 5622 5620 5621 5621 5621 5617 5614 5614 5611 5610 5604 5602 5600 5594 5592 5587 5582 5576 5572 5568 5566 5560 5562 5558
5632 5631 5630 5626 5626 5622 5625 5622 5620 5620 5620 5620 5614 5615 5612 5610 5607 5605 5600 5595 5590 5586 5579 5578 5572 5569 5562 5559 5554 5552 5549 5546
5636 5634 5633 5629 5626 5626 5621 5621 5619 5618 5617 5614 5611 5609 5608 5604 5602 5599 5595 5588 5583 5578 5574 5569 5562 5556 5553 5550 5545 5542 5538 5534
5634 5632 5628 5625 5623 5620 5621 5619 5618 5615 5612 5608 5607 5606 5604 5602 5599 5595 5587 5582 5579 5572 5566 5559 5552 5547 5540 5538 5534 5529 5525 5521
5635 5632 5627 5625 5621 5618 5617 5615 5613 5611 5611 5608 5605 5602 5601 5599 5593 5586 5582 5577 5572 5565 5557 5549 5539 5534 5532 5524 5519 5515 5512 5508
5636 5631 5626 5623 5618 5614 5609 5608 5607 5606 5607 5605 5601 5601 5595 5592 5586 5581 5574 5569 5561 5554 5545 5537 5531 5526 5521 5512 5506 5502 5498 5493
5632 5629 5625 5622 5614 5610 5606 5605 5603 5602 5600 5600 5598 5593 5589 5586 5580 5571 5565 5559 5551 5543 5534 5528 5522 5517 5509 5499 5491 5486 5481 5477
5631 5626 5621 5618 5616 5613 5610 5604 5599 5597 5596 5590 5589 5586 5581 5576 5568 5561 5556 5547 5539 5533 5528 5519 5509 5501 5493 5483 5475 5470 5466 5463
5632 5628 5625 5619 5617 5611 5604 5598 5591 5587 5584 5581 5578 5575 5570 5563 5556 5550 5543 5537 5529 5521 5514 5508 5496 5487 5481 5473 5459 5452 5447 5448
5636 5633 5625 5619 5615 5609 5605 5598 5588 5584 5578 5573 5568 5563 5556 5551 5546 5540 5534 5527 5516 5506 5500 5493 5484 5474 5467 5459 5451 5443 5433 5428
5631 5628 5622 5618 5615 5612 5603 5592 5587 5582 5573 5565 5559 5552 5547 5541 5534 5528 5521 5513 5502 5493 5485 5478 5470 5461 5454 5446 5437 5429 5422 5412
5629 5626 5622 5618 5615 5611 5605 5594 5585 5576 5565 5557 5549 5542 5536 5530 5522 5514 5506 5497 5488 5483 5475 5468 5459 5450 5441 5434 5425 5416 5407 5396
5629 5626 5623 5621 5614 5609 5603 5594 5583 5574 5564 5550 5540 5532 5524 5517 5510 5503 5493 5485 5477 5467 5462 5455 5447 5439 5428 5419 5411 5401 5392 5382
5630 5626 5619 5617 5610 5603 5595 5587 5577 5566 5556 5544 5533 5524 5514 5507 5498 5489 5482 5472 5466 5456 5448 5442 5434 5425 5416 5406 5397 5387 5377 5367